Starlink 32493

operational
NORAD ID: 62025 Int'l Des: 2024-213 Owner: SPXS Country: US Constellation: starlink
LEOCIRCULAR

Starlink 32493について

説明を読み込み中...

リアルタイム位置

3D地球を読み込み中...

次回通過

高度履歴

Altitude vs Time

uPlot chart will show altitude changes over time

軌道要素

1 62025U 24213T 25350.95095275 .00011292 00000-0 39284-3 0 9998
2 62025 53.1587 192.6888 0001573 71.8312 288.2860 15.30196352 60483
Epoch: Dec 16, 2025 • Age: 8 hours

現在のステータス

高度 481.8 km
速度 7.62 km/s
衛星直下点 -22.37°S, 10.87°W
打ち上げ日 Nov 18, 2024
運用期間 1 years
タイプ internet

技術仕様

分類 Payload
質量 730.00 kg
乾燥質量 700.00 kg
総質量 730.00 kg
長さ 0.30 m
直径 4.10 m
スパン 29.00 m
形状 Box + pan
製造者 SPXS
バスタイプ Starlink V2M
フェーズステータス In Orbit
所有者/国 SPXS/US

大規模コンステレーション

Loading constellations...